Hlavní strana
METAR-TAF:

METAR-TAF

Letiště :

Homerville, Georgie, Spojené státy americké

zeměpisná šířka: 31-03-21N, zeměpisná délka: 082-46-27W, výška: 57 m

Aktuální stav počasí

Zpráva byla vytvořena před 33 minutami, v 14:15 UTC
Západoseverozápadní vítr 7 kt
Teplota 23°C
Vlhkost vzduchu 83%
Tlak 1012 hPa
Viditelnost: 16.1 km
Polojasno ve výšce 1400 ft
Zataženo ve výšce 2200 ft

METAR: KHOE 181415Z AUTO 29007KT 10SM SCT014 OVC022 23/20 A2989 RMK AO2

Čas: 10:48 (14:48 UTC)


TAF: chybějící

Stav a předpovědi počasí z více než 4 000 letišť (zprávy METAR a TAF).

Červené a žluté tečky na mapě představují dostupné meteorologické stanice.

Když kurzor umístíte na tečku, zobrazí se název stanice.

Pak kliknutím zobrazíte stav a předpověď počasí.

Chcete-li změnit mapu, kliknutím na zelené tlačítko se znaménkem +mapu přiblížíte, kliknutím na zelené tlačítko se znaménkem – mapu oddálíte a kliknutím na zelené šipky přejdete na sousední mapy.


METAR-TAF: